Showing default

GGSE 1 (GGRS), 728

Orbit data source: Space-Track

GGSE 1 (GGRS), 728 is an American payload satellite in LEO that was launched on Sat, 11 Jan 1964 UTC via a THOR SLV-2A AGENA D launch vehicle from the Air Force Western Test Range (AFWTR). Payload-class satellites include a variety of spacecraft equipped with specific instruments for various scientific and technological missions. These include communications satellites like Starlink; space stations such as the ISS; scientific satellites like the Hubble; Earth observation satellites from companies like Planet Labs, Umbra, and HawkEye 360; GPS; miniature CubeSats for education and research; and military/defense satellites.

Loading next visibility...
Identifier
728, 1964-001B
Orbit
LEO
Country
Flag of USUS
Related business
Manufacturer
NRL
Mission
Spacecraft
Bus & Motor
NRL 20", Unknown motor
Mass
38 kg wet, 38 kg dry
Launch date (UTC)
1964-01-11 (62 years ago)
Launch vehicle
THOR SLV-2A AGENA D
Launch site
Air Force Western Test Range (AFWTR)
Object type
Payload
Rocket body
Debris
Shape & HBR
Unknown
Radar Cross Section
Medium (>0.1 m² and <1 m²)

Expand to show TLE details & history
Last TLE update: 6 hours ago

TLE from 6 hours ago
0 GGSE 1 (GGRS)
1 00728U 64001B   26094.89967772  .00000098  00000-0  10758-3 0  9995
2 00728  69.9104   1.4115 0010657  79.8590 280.3718 13.97761322169430
Epoch: 2026-04-04T21:35Z
TLE epoch observation values (Epoch: 2026-04-04T21:35:32.155Z)
Latitude
0.00005°
Longitude
-155.68529°
Altitude
902.477 km
Speed
7.402 km/s
True Right ascension
00h 05m 38s
True Declination
0° 00' 00"
Sunlit
Object was in daylight at epoch
Visualization orbit readout
Latitude
Unknown
Longitude
Unknown
Altitude
Unknown
Speed
Unknown
Apparent Right ascension
Unknown
Apparent Declination
Unknown
Sunlit
N/A
Visualization observer readout
Local Sidereal Time
09:00:39
Azimuth
Unknown
Elevation
Unknown
Doppler factor
Unknown
Orbital elements
Apogee altitude
907.364 km
Perigee altitude
891.852 km
Semi-major axis
7,277.745 km
Eccentricity
0.00107
Inclination
69.9104°
RAAN
1.4115°
Arg. of periapsis
79.859°
True anomaly
280.25165°
Mean anomaly
280.3718°
Eccentric anomaly
280.31173°
Mean motion
3.49581 °/min
Orbital period
102.98 mins
BSTAR
0.00010758
Loading maneuver chart data...
Computing Atmospheric mass density...
Loading historical data...
Loading historical data...
Loading historical data...
Loading historical data...
Loading historical data...
Loading historical data...
Loading historical data...
Other satellites on launch #1 in the year 1964 (1964-01-11 UTC)

Documentation

Showing up to 5 results
|